This demonstration page uses our WeatherBlox Daily Observations layout. Learn more.

Left ArrowRight Arrow

36.19886, -115.1175

Hourly Observations for December 14, 2020

Temp ( °F °C ) Dew Point ( °F °C ) Humidity (%) Winds ( mph kmh ) Pressure ( in mb ) Visibility ( mi km ) Precip ( " mm )
12:53 am 00:53 Cloudy 44 6.7 9 -12.8 24 24 Calm 30.06 1018 10 16.0934 0 0
1:53 am 01:53 Mostly Cloudy 42 5.6 11 -11.7 28 28 Calm 30.04 1017 10 16.0934 0 0
2:53 am 02:53 Cloudy 40 4.4 12 -11.1 32 32 NW 5 7 30.01 1016 10 16.0934 0 0
3:53 am 03:53 Partly Cloudy 40 4.4 9 -12.8 28 28 NNW 12 19 30.04 1017 10 16.0934 0 0
4:53 am 04:53 Mostly Clear 39 3.9 7 -13.9 26 26 N 12 19 30.06 1018 10 16.0934 0 0
5:53 am 05:53 Cloudy 44 6.7 7 -13.9 22 22 N 13 20 30.06 1018 10 16.0934 0 0
6:53 am 06:53 Cloudy 42 5.6 8 -13.3 24 24 W 7 11 30.06 1018 10 16.0934 0 0
7:53 am 07:53 Sunny 43 6.1 9 -12.8 25 25 Calm 30.06 1018 10 16.0934 0 0
8:53 am 08:53 Sunny 49 9.4 8 -13.3 19 19 WNW 3 6 30.06 1018 10 16.0934 0 0
9:53 am 09:53 Sunny 53 11.7 13 -10.6 20 20 N 14 22 30.04 1017 10 16.0934 0 0
10:53 am 10:53 Sunny with Light Rain 55 12.8 18 -7.8 23 23 NW 22 35 30.01 1016 10 16.0934 0.001 0.001
11:53 am 11:53 Sunny with Light Rain 56 13.3 20 -6.7 24 24 NNW 24 39 30 1016 10 16.0934 0.001 0.001
12:53 pm 12:53 Sunny with Light Rain 58 14.4 21 -6.1 24 24 NNW 20 31 29.99 1016 10 16.0934 0.001 0.001
1:53 pm 13:53 Sunny 59 15 21 -6.1 23 23 NNW 22 35 29.99 1016 10 16.0934 0.001 0.001
2:53 pm 14:53 Sunny 59 15 21 -6.1 23 23 N 13 20 30.02 1017 10 16.0934 0 0
3:53 pm 15:53 Sunny 58 14.4 19 -7.2 22 22 N 9 15 30.03 1017 10 16.0934 0 0
4:53 pm 16:53 Clear 56 13.3 20 -6.7 24 24 NW 16 26 30.04 1017 10 16.0934 0 0
5:53 pm 17:53 Clear 55 12.8 20 -6.7 25 25 NW 12 19 30.06 1018 10 16.0934 0 0
6:53 pm 18:53 Clear 55 12.8 20 -6.7 25 25 NW 16 26 30.07 1018 10 16.0934 0 0
7:53 pm 19:53 Clear 51 10.6 21 -6.1 31 31 NE 12 19 30.11 1020 10 16.0934 0 0
8:53 pm 20:53 Clear 50 10 21 -6.1 32 32 NNE 9 15 30.11 1020 10 16.0934 0 0
9:53 pm 21:53 Clear 50 10 21 -6.1 32 32 NNE 10 17 30.13 1020 10 16.0934 0 0
10:53 pm 22:53 Clear 48 8.9 20 -6.7 33 33 N 7 11 30.15 1021 10 16.0934 0 0
11:53 pm 23:53 Clear 48 8.9 20 -6.7 33 33 NNW 16 26 30.16 1021 10 16.0934 0 0

Powered by AerisWeather